SNEZKA Weather Reports


time (UTC)temp
C
wind
direction
speed
KPH
gust
KPH
rain 1hr
cm
rain 24hr
cm
rain mn
cm
humidity
%
barometer
mb
20260831012059 11 210 25.7 49.9 0.00 0.00 0.00 76
20260831001958 11 200 32.2 57.9 0.00 0.00 0.00 71
20260830232158 12 210 29.0 53.1 0.00 0.00 0.00 71
20260830222200 12 190 25.7 53.1 0.00 0.00 0.00 71
20260830211959 12 170 22.5 41.8 0.00 0.00 0.00 66
20260830202157 12 200 22.5 46.7 0.00 0.00 0.00 76
20260830192058 12 200 22.5 46.7 0.00 0.00 0.00 76
20260830182000 12 180 19.3 46.7 0.00 0.00 0.00 76
20260830172158 12 100 14.5 38.6 0.00 0.00 0.00 76
20260830162100 12 290 19.3 46.7 0.00 0.00 0.00 66
20260830151958 12 280 14.5 35.4 0.00 0.00 0.00 76
20260830142058 12 100 14.5 46.7 0.00 0.00 0.00 82
20260830132059 12 270 19.3 49.9 0.00 0.00 0.00 87
20260830122027 11 200 32.2 78.9 0.00 0.00 0.00 99
20260830112058 11 250 22.5 64.4 0.00 0.00 0.00 93
20260830102259 11 230 29.0 75.6 0.00 0.00 0.00 87
20260830091958 11 240 25.7 75.6 0.00 0.00 0.00 87
20260830082100 11 210 35.4 78.9 0.00 0.00 0.00 81
20260830072058 10 240 25.7 69.2 0.00 0.00 0.00 87
20260830062000 8 210 32.2 69.2 0.00 0.00 0.00 93
20260830052058 8 210 25.7 46.7 0.00 0.00 0.00 87
20260830042158 8 190 32.2 61.2 0.00 0.00 0.00 93
20260830031957 10 220 25.7 57.9 0.00 0.00 0.00 87
20260830022057 10 200 35.4 53.1 0.00 0.00 0.00 87